Time,TemperatureF,DewpointF,PressureIn,WindDirection,WindDirectionDegrees,WindSpeedMPH,WindSpeedGustMPH,Humidity,HourlyPrecipIn,Conditions,Clouds,dailyrainin,SoftwareType,DateUTC
2013-04-20 00:03:00,37.0,31.0,-100.00,West,265,16.0,21.0,77,0.00,,,-99.99,,2013-04-20 04:03:00,
2013-04-20 00:12:00,37.0,30.0,-100.00,West,270,15.0,29.0,75,0.00,,,-99.99,,2013-04-20 04:12:00,
2013-04-20 00:23:00,37.0,30.0,-100.00,West,265,16.0,23.0,74,0.00,,,-99.99,,2013-04-20 04:23:00,
2013-04-20 00:33:00,37.0,30.0,-100.00,West,270,17.0,27.0,73,0.00,,,-99.99,,2013-04-20 04:33:00,
2013-04-20 00:42:00,37.0,29.0,-100.00,West,270,21.0,27.0,72,0.00,,,-99.99,,2013-04-20 04:42:00,
2013-04-20 00:52:00,37.0,30.0,-100.00,West,280,16.0,26.0,74,0.00,,,-99.99,,2013-04-20 04:52:00,
2013-04-20 01:02:00,37.0,29.0,-100.00,West,280,15.0,25.0,72,0.00,,,-99.99,,2013-04-20 05:02:00,
2013-04-20 01:12:00,37.0,30.0,-100.00,West,275,15.0,23.0,74,0.00,,,-99.99,,2013-04-20 05:12:00,
2013-04-20 01:22:00,37.0,29.0,-100.00,West,280,17.0,22.0,74,0.00,,,-99.99,,2013-04-20 05:22:00,
2013-04-20 01:32:00,36.0,30.0,-100.00,West,275,15.0,24.0,76,0.00,,,-99.99,,2013-04-20 05:32:00,
2013-04-20 01:43:00,36.0,29.0,-100.00,West,280,16.0,24.0,75,0.00,,,-99.99,,2013-04-20 05:43:00,
2013-04-20 01:52:00,36.0,29.0,-100.00,West,275,13.0,24.0,76,0.00,,,-99.99,,2013-04-20 05:52:00,
2013-04-20 02:02:00,36.0,29.0,-100.00,West,275,15.0,20.0,75,0.00,,,-99.99,,2013-04-20 06:02:00,
2013-04-20 02:12:00,36.0,29.0,-100.00,WNW,285,11.0,19.0,76,0.00,,,-99.99,,2013-04-20 06:12:00,
2013-04-20 02:21:00,36.0,29.0,-100.00,West,280,11.0,19.0,76,0.00,,,-99.99,,2013-04-20 06:21:00,
2013-04-20 02:32:00,36.0,30.0,-100.00,WNW,300,12.0,16.0,78,0.00,,,-99.99,,2013-04-20 06:32:00,
2013-04-20 02:42:00,35.0,29.0,-100.00,West,275,12.0,18.0,78,0.00,,,-99.99,,2013-04-20 06:42:00,
2013-04-20 02:52:00,35.0,28.0,-100.00,WNW,290,14.0,22.0,75,0.00,,,-99.99,,2013-04-20 06:52:00,
2013-04-20 03:01:00,35.0,28.0,-100.00,West,280,11.0,19.0,76,0.00,,,-99.99,,2013-04-20 07:01:00,
2013-04-20 03:11:00,35.0,28.0,-100.00,WNW,290,12.0,16.0,73,0.00,,,-99.99,,2013-04-20 07:11:00,
2013-04-20 03:21:00,35.0,28.0,-100.00,West,280,12.0,19.0,74,0.00,,,-99.99,,2013-04-20 07:21:00,
2013-04-20 03:32:00,35.0,28.0,-100.00,WNW,290,13.0,19.0,73,0.00,,,-99.99,,2013-04-20 07:32:00,
2013-04-20 03:42:00,35.0,29.0,-100.00,West,265,11.0,20.0,77,0.00,,,-99.99,,2013-04-20 07:42:00,
2013-04-20 03:52:00,35.0,29.0,-100.00,West,265,12.0,17.0,80,0.00,,,-99.99,,2013-04-20 07:52:00,
2013-04-20 04:02:00,35.0,29.0,-100.00,West,270,12.0,17.0,78,0.00,,,-99.99,,2013-04-20 08:02:00,
2013-04-20 04:11:00,35.0,28.0,-100.00,West,275,11.0,21.0,76,0.00,,,-99.99,,2013-04-20 08:11:00,
2013-04-20 04:21:00,35.0,28.0,-100.00,West,275,14.0,19.0,75,0.00,,,-99.99,,2013-04-20 08:21:00,
2013-04-20 04:32:00,35.0,28.0,-100.00,West,280,14.0,19.0,76,0.00,,,-99.99,,2013-04-20 08:32:00,
2013-04-20 04:42:00,35.0,28.0,-100.00,West,280,14.0,22.0,77,0.00,,,-99.99,,2013-04-20 08:42:00,
2013-04-20 04:52:00,35.0,28.0,-100.00,West,275,14.0,19.0,78,0.00,,,-99.99,,2013-04-20 08:52:00,
2013-04-20 05:02:00,34.0,29.0,-100.00,West,280,12.0,18.0,79,0.00,,,-99.99,,2013-04-20 09:02:00,
2013-04-20 05:12:00,34.0,29.0,-100.00,West,280,12.0,17.0,79,0.00,,,-99.99,,2013-04-20 09:12:00,
2013-04-20 05:21:00,35.0,29.0,-100.00,West,275,13.0,17.0,78,0.00,,,-99.99,,2013-04-20 09:21:00,
2013-04-20 05:33:00,35.0,29.0,-100.00,West,275,12.0,19.0,79,0.00,,,-99.99,,2013-04-20 09:33:00,
2013-04-20 05:43:00,35.0,29.0,-100.00,West,275,15.0,19.0,78,0.00,,,-99.99,,2013-04-20 09:43:00,
2013-04-20 05:53:00,34.0,29.0,-100.00,WNW,285,15.0,25.0,81,0.00,,,-99.99,,2013-04-20 09:53:00,
2013-04-20 06:03:00,34.0,29.0,-100.00,WNW,285,17.0,23.0,83,0.55,,,-99.99,,2013-04-20 10:03:00,
2013-04-20 06:13:00,33.0,29.0,-100.00,WNW,300,15.0,21.0,85,0.00,,,-99.99,,2013-04-20 10:13:00,
2013-04-20 06:23:00,33.0,29.0,-100.00,WNW,295,12.0,17.0,85,0.00,,,-99.99,,2013-04-20 10:23:00,
2013-04-20 06:33:00,33.0,29.0,-100.00,NW,305,10.0,16.0,85,0.00,,,-99.99,,2013-04-20 10:33:00,
2013-04-20 06:42:00,33.0,29.0,-100.00,WNW,300,9.0,14.0,84,0.00,,,-99.99,,2013-04-20 10:42:00,
2013-04-20 06:52:00,33.0,29.0,-100.00,NW,305,9.0,12.0,83,0.00,,,-99.99,,2013-04-20 10:52:00,
2013-04-20 07:02:00,34.0,29.0,-100.00,West,280,8.0,12.0,83,0.00,,,-99.99,,2013-04-20 11:02:00,
2013-04-20 07:12:00,34.0,28.0,-100.00,WNW,290,8.0,13.0,81,0.00,,,-99.99,,2013-04-20 11:12:00,
2013-04-20 07:23:00,33.0,28.0,-100.00,WNW,290,8.0,13.0,80,0.00,,,-99.99,,2013-04-20 11:23:00,
2013-04-20 07:32:00,34.0,28.0,-100.00,WNW,290,12.0,16.0,80,0.00,,,-99.99,,2013-04-20 11:32:00,
2013-04-20 07:42:00,34.0,28.0,-100.00,NW,305,9.0,12.0,80,0.00,,,-99.99,,2013-04-20 11:42:00,
2013-04-20 07:52:00,34.0,27.0,-100.00,NW,315,9.0,16.0,76,0.00,,,-99.99,,2013-04-20 11:52:00,
2013-04-20 08:02:00,34.0,26.0,-100.00,NW,310,7.0,16.0,70,0.00,,,-99.99,,2013-04-20 12:02:00,
2013-04-20 08:11:00,34.0,26.0,-100.00,NW,305,9.0,13.0,70,0.00,,,-99.99,,2013-04-20 12:11:00,
2013-04-20 08:22:00,35.0,25.0,-100.00,NW,305,9.0,16.0,68,0.00,,,-99.99,,2013-04-20 12:22:00,
2013-04-20 08:32:00,35.0,26.0,-100.00,NW,320,9.0,16.0,69,0.00,,,-99.99,,2013-04-20 12:32:00,
2013-04-20 08:42:00,36.0,26.0,-100.00,NW,310,9.0,15.0,68,0.00,,,-99.99,,2013-04-20 12:42:00,
2013-04-20 08:52:00,35.0,24.0,-100.00,NW,310,12.0,17.0,63,0.00,,,-99.99,,2013-04-20 12:52:00,
2013-04-20 09:02:00,36.0,25.0,-100.00,NW,320,9.0,16.0,64,0.00,,,-99.99,,2013-04-20 13:02:00,
2013-04-20 09:11:00,35.0,25.0,-100.00,NW,320,9.0,16.0,66,0.00,,,-99.99,,2013-04-20 13:11:00,
2013-04-20 09:21:00,36.0,24.0,-100.00,NW,305,12.0,16.0,61,0.00,,,-99.99,,2013-04-20 13:21:00,
2013-04-20 09:32:00,37.0,24.0,-100.00,NW,325,13.0,19.0,59,0.00,,,-99.99,,2013-04-20 13:32:00,
2013-04-20 09:42:00,37.0,24.0,-100.00,NW,325,11.0,19.0,59,0.00,,,-99.99,,2013-04-20 13:42:00,
2013-04-20 09:52:00,37.0,22.0,-100.00,WNW,295,12.0,19.0,54,0.00,,,-99.99,,2013-04-20 13:52:00,
2013-04-20 10:02:00,37.0,22.0,-100.00,NW,315,16.0,20.0,56,0.00,,,-99.99,,2013-04-20 14:02:00,
2013-04-20 10:11:00,37.0,23.0,-100.00,NW,315,13.0,22.0,55,0.55,,,-99.99,,2013-04-20 14:11:00,
2013-04-20 10:21:00,37.0,22.0,-100.00,NW,315,11.0,19.0,54,0.00,,,-99.99,,2013-04-20 14:21:00,
2013-04-20 10:32:00,37.0,23.0,-100.00,NW,325,14.0,19.0,57,0.00,,,-99.99,,2013-04-20 14:32:00,
2013-04-20 10:42:00,38.0,23.0,-100.00,NW,305,14.0,18.0,54,0.00,,,-99.99,,2013-04-20 14:42:00,
2013-04-20 10:51:00,38.0,23.0,-100.00,WNW,295,13.0,18.0,54,0.00,,,-99.99,,2013-04-20 14:51:00,
2013-04-20 11:02:00,38.0,22.0,-100.00,NW,320,17.0,22.0,51,0.00,,,-99.99,,2013-04-20 15:02:00,
2013-04-20 11:11:00,39.0,21.0,-100.00,WNW,290,13.0,20.0,49,0.00,,,-99.99,,2013-04-20 15:11:00,
2013-04-20 11:21:00,38.0,21.0,-100.00,WNW,300,15.0,19.0,50,0.00,,,-99.99,,2013-04-20 15:21:00,
2013-04-20 11:33:00,38.0,22.0,-100.00,NW,305,14.0,21.0,51,0.00,,,-99.99,,2013-04-20 15:33:00,
2013-04-20 11:43:00,39.0,22.0,-100.00,NW,310,11.0,21.0,49,0.00,,,-99.99,,2013-04-20 15:43:00,
2013-04-20 11:53:00,39.0,21.0,-100.00,West,265,12.0,19.0,47,0.00,,,-99.99,,2013-04-20 15:53:00,
2013-04-20 12:03:00,39.0,20.0,-100.00,NW,310,17.0,23.0,46,0.00,,,-99.99,,2013-04-20 16:03:00,
2013-04-20 12:12:00,40.0,22.0,-100.00,WNW,295,12.0,19.0,48,0.00,,,-99.99,,2013-04-20 16:12:00,
2013-04-20 12:23:00,41.0,22.0,-100.00,WNW,300,14.0,21.0,46,0.00,,,-99.99,,2013-04-20 16:23:00,
2013-04-20 12:33:00,40.0,20.0,-100.00,NW,315,12.0,19.0,45,0.00,,,-99.99,,2013-04-20 16:33:00,
2013-04-20 12:42:00,41.0,21.0,-100.00,WNW,285,16.0,21.0,43,0.00,,,-99.99,,2013-04-20 16:42:00,
2013-04-20 12:52:00,41.0,23.0,-100.00,NW,325,17.0,25.0,46,0.00,,,-99.99,,2013-04-20 16:52:00,
2013-04-20 13:02:00,42.0,23.0,-100.00,WNW,285,12.0,22.0,47,0.00,,,-99.99,,2013-04-20 17:02:00,
2013-04-20 13:12:00,42.0,22.0,-100.00,WNW,290,14.0,19.0,45,0.00,,,-99.99,,2013-04-20 17:12:00,
2013-04-20 13:23:00,42.0,22.0,-100.00,WNW,290,14.0,22.0,45,0.00,,,-99.99,,2013-04-20 17:23:00,
2013-04-20 13:33:00,41.0,22.0,-100.00,NW,315,15.0,21.0,47,0.00,,,-99.99,,2013-04-20 17:33:00,
2013-04-20 13:42:00,42.0,20.0,-100.00,WNW,295,14.0,22.0,41,0.00,,,-99.99,,2013-04-20 17:42:00,
2013-04-20 13:52:00,42.0,23.0,-100.00,WNW,300,16.0,23.0,47,0.00,,,-99.99,,2013-04-20 17:52:00,
2013-04-20 14:02:00,42.0,23.0,-100.00,WNW,290,12.0,21.0,47,0.00,,,-99.99,,2013-04-20 18:02:00,
2013-04-20 14:12:00,41.0,20.0,-100.00,WNW,300,15.0,21.0,42,0.00,,,-99.99,,2013-04-20 18:12:00,
2013-04-20 14:22:00,42.0,22.0,-100.00,WNW,300,12.0,22.0,43,0.00,,,-99.99,,2013-04-20 18:22:00,
2013-04-20 14:32:00,43.0,22.0,-100.00,WNW,290,13.0,21.0,42,0.00,,,-99.99,,2013-04-20 18:32:00,
2013-04-20 14:42:00,42.0,23.0,-100.00,NW,310,12.0,24.0,46,0.00,,,-99.99,,2013-04-20 18:42:00,
2013-04-20 14:52:00,44.0,25.0,-100.00,WNW,285,16.0,23.0,46,0.00,,,-99.99,,2013-04-20 18:52:00,
2013-04-20 15:02:00,42.0,23.0,-100.00,NW,325,14.0,19.0,48,0.00,,,-99.99,,2013-04-20 19:02:00,
2013-04-20 15:11:00,44.0,25.0,-100.00,NW,315,12.0,20.0,47,0.00,,,-99.99,,2013-04-20 19:11:00,
2013-04-20 15:21:00,42.0,22.0,-100.00,NW,305,16.0,23.0,44,0.00,,,-99.99,,2013-04-20 19:21:00,
2013-04-20 15:32:00,42.0,23.0,-100.00,NW,315,14.0,21.0,47,0.00,,,-99.99,,2013-04-20 19:32:00,
2013-04-20 15:42:00,43.0,24.0,-100.00,NW,305,13.0,25.0,45,0.00,,,-99.99,,2013-04-20 19:42:00,
2013-04-20 15:52:00,43.0,22.0,-100.00,NW,320,15.0,19.0,43,0.00,,,-99.99,,2013-04-20 19:52:00,
2013-04-20 16:02:00,43.0,22.0,-100.00,NW,320,16.0,21.0,43,0.00,,,-99.99,,2013-04-20 20:02:00,
2013-04-20 16:12:00,43.0,22.0,-100.00,NW,325,9.0,16.0,44,0.00,,,-99.99,,2013-04-20 20:12:00,
2013-04-20 16:22:00,44.0,21.0,-100.00,WNW,295,16.0,22.0,38,0.00,,,-99.99,,2013-04-20 20:22:00,
2013-04-20 16:32:00,44.0,21.0,-100.00,NW,310,12.0,17.0,38,0.00,,,-99.99,,2013-04-20 20:32:00,
2013-04-20 16:42:00,45.0,22.0,-100.00,NW,310,14.0,23.0,40,0.00,,,-99.99,,2013-04-20 20:42:00,
2013-04-20 16:52:00,45.0,24.0,-100.00,NW,320,9.0,16.0,42,0.00,,,-99.99,,2013-04-20 20:52:00,
2013-04-20 17:01:00,45.0,21.0,-100.00,NW,325,11.0,22.0,38,0.00,,,-99.99,,2013-04-20 21:01:00,
2013-04-20 17:12:00,44.0,21.0,-100.00,NW,315,9.0,19.0,40,0.00,,,-99.99,,2013-04-20 21:12:00,
2013-04-20 17:22:00,44.0,20.0,-100.00,NW,305,12.0,20.0,38,0.00,,,-99.99,,2013-04-20 21:22:00,
2013-04-20 17:33:00,42.0,20.0,-100.00,NNW,330,12.0,19.0,40,0.00,,,-99.99,,2013-04-20 21:33:00,
2013-04-20 17:43:00,44.0,20.0,-100.00,NW,310,12.0,17.0,39,0.00,,,-99.99,,2013-04-20 21:43:00,
2013-04-20 17:52:00,43.0,23.0,-100.00,WNW,300,11.0,16.0,44,0.00,,,-99.99,,2013-04-20 21:52:00,
2013-04-20 18:03:00,43.0,22.0,-100.00,NW,320,15.0,22.0,42,0.00,,,-99.99,,2013-04-20 22:03:00,
2013-04-20 18:12:00,43.0,19.0,-100.00,NNW,335,12.0,18.0,37,0.00,,,-99.99,,2013-04-20 22:12:00,
2013-04-20 18:22:00,43.0,20.0,-100.00,NNW,330,17.0,24.0,39,0.00,,,-99.99,,2013-04-20 22:22:00,
2013-04-20 18:32:00,43.0,20.0,-100.00,NW,325,13.0,21.0,40,0.00,,,-99.99,,2013-04-20 22:32:00,
2013-04-20 18:42:00,43.0,18.0,-100.00,WNW,300,11.0,18.0,36,0.00,,,-99.99,,2013-04-20 22:42:00,
2013-04-20 18:52:00,43.0,17.0,-100.00,NNW,330,11.0,16.0,35,0.00,,,-99.99,,2013-04-20 22:52:00,
2013-04-20 19:02:00,42.0,20.0,-100.00,NNW,335,12.0,19.0,40,0.00,,,-99.99,,2013-04-20 23:02:00,
2013-04-20 19:11:00,42.0,19.0,-100.00,NNW,340,11.0,19.0,40,0.00,,,-99.99,,2013-04-20 23:11:00,
2013-04-20 19:22:00,42.0,18.0,-100.00,NNW,330,9.0,19.0,37,0.00,,,-99.99,,2013-04-20 23:22:00,
2013-04-20 19:32:00,41.0,16.0,-100.00,NW,315,13.0,17.0,35,0.00,,,-99.99,,2013-04-20 23:32:00,
2013-04-20 19:42:00,41.0,16.0,-100.00,NNW,335,11.0,16.0,35,0.00,,,-99.99,,2013-04-20 23:42:00,
2013-04-20 19:52:00,41.0,18.0,-100.00,NW,325,9.0,19.0,40,0.00,,,-99.99,,2013-04-20 23:52:00,
2013-04-20 20:01:00,40.0,16.0,-100.00,NNW,335,9.0,16.0,37,0.00,,,-99.99,,2013-04-21 00:01:00,
2013-04-20 20:12:00,40.0,16.0,-100.00,NNW,340,9.0,14.0,37,0.00,,,-99.99,,2013-04-21 00:12:00,
2013-04-20 20:22:00,40.0,17.0,-100.00,NNW,340,7.0,11.0,38,0.00,,,-99.99,,2013-04-21 00:22:00,
2013-04-20 20:32:00,39.0,20.0,-100.00,North,350,8.0,12.0,45,0.00,,,-99.99,,2013-04-21 00:32:00,
2013-04-20 20:42:00,38.0,19.0,-100.00,NNW,345,7.0,10.0,45,0.00,,,-99.99,,2013-04-21 00:42:00,
2013-04-20 20:52:00,38.0,20.0,-100.00,NNW,345,5.0,9.0,46,0.00,,,-99.99,,2013-04-21 00:52:00,
2013-04-20 21:01:00,37.0,21.0,-100.00,North,0,4.0,7.0,51,0.00,,,-99.99,,2013-04-21 01:01:00,
2013-04-20 21:12:00,37.0,20.0,-100.00,North,350,5.0,9.0,49,0.00,,,-99.99,,2013-04-21 01:12:00,
2013-04-20 21:21:00,37.0,20.0,-100.00,North,350,3.0,7.0,51,0.00,,,-99.99,,2013-04-21 01:21:00,
2013-04-20 21:32:00,37.0,20.0,-100.00,North,0,4.0,8.0,49,0.00,,,-99.99,,2013-04-21 01:32:00,
2013-04-20 21:42:00,36.0,20.0,-100.00,North,355,3.0,6.0,52,0.00,,,-99.99,,2013-04-21 01:42:00,
2013-04-20 21:52:00,36.0,19.0,-100.00,North,0,4.0,6.0,50,0.00,,,-99.99,,2013-04-21 01:52:00,
2013-04-20 22:02:00,35.0,19.0,-100.00,North,0,4.0,7.0,51,0.00,,,-99.99,,2013-04-21 02:02:00,
2013-04-20 22:11:00,35.0,19.0,-100.00,North,10,6.0,8.0,52,0.00,,,-99.99,,2013-04-21 02:11:00,
2013-04-20 22:22:00,35.0,19.0,-100.00,NNE,15,4.0,7.0,52,0.00,,,-99.99,,2013-04-21 02:22:00,
2013-04-20 22:32:00,35.0,20.0,-100.00,North,10,3.0,6.0,54,0.00,,,-99.99,,2013-04-21 02:32:00,
2013-04-20 22:42:00,35.0,19.0,-100.00,North,10,3.0,6.0,52,0.00,,,-99.99,,2013-04-21 02:42:00,
2013-04-20 22:52:00,34.0,20.0,-100.00,NNE,15,4.0,6.0,55,0.00,,,-99.99,,2013-04-21 02:52:00,
2013-04-20 23:01:00,34.0,19.0,-100.00,North,10,5.0,6.0,54,0.00,,,-99.99,,2013-04-21 03:01:00,
2013-04-20 23:11:00,34.0,20.0,-100.00,North,5,4.0,6.0,56,0.00,,,-99.99,,2013-04-21 03:11:00,
2013-04-20 23:21:00,33.0,19.0,-100.00,NNE,15,4.0,6.0,55,0.00,,,-99.99,,2013-04-21 03:21:00,
2013-04-20 23:33:00,33.0,18.0,-100.00,NNE,15,3.0,6.0,52,0.00,,,-99.99,,2013-04-21 03:33:00,
2013-04-20 23:42:00,33.0,18.0,-100.00,NNE,15,2.0,6.0,53,0.00,,,-99.99,,2013-04-21 03:42:00,
2013-04-20 23:52:00,34.0,17.0,-100.00,NE,35,1.0,3.0,48,0.00,,,-99.99,,2013-04-21 03:52:00,